Year,Month,Day,Hour,Minute,Value (Times are PST for temperature in C)
2011,02,15,03,06,1.70
2011,02,15,03,07,1.70
2011,02,15,03,08,1.70
2011,02,15,03,09,1.70
2011,02,15,03,10,1.70
2011,02,15,03,11,1.60
2011,02,15,03,12,1.60
2011,02,15,03,13,1.60
2011,02,15,03,14,1.50
2011,02,15,03,15,1.40
2011,02,15,03,16,1.30
2011,02,15,03,17,1.30
2011,02,15,03,18,1.30
2011,02,15,03,19,1.30
2011,02,15,03,20,1.30
2011,02,15,03,21,1.30
2011,02,15,03,22,1.30
2011,02,15,03,23,1.30
2011,02,15,03,24,1.30
2011,02,15,03,25,1.30
2011,02,15,03,26,1.30
2011,02,15,03,27,1.30
2011,02,15,03,28,1.30
2011,02,15,03,29,1.30
2011,02,15,03,30,1.20
2011,02,15,03,31,1.20
2011,02,15,03,32,1.20
2011,02,15,03,33,1.20
2011,02,15,03,34,1.20
2011,02,15,03,35,1.20
2011,02,15,03,36,1.20
2011,02,15,03,37,1.10
2011,02,15,03,38,1.20
2011,02,15,03,39,1.20
2011,02,15,03,40,1.20
2011,02,15,03,41,1.20
2011,02,15,03,42,1.20
2011,02,15,03,43,1.20
2011,02,15,03,44,1.20
2011,02,15,03,45,1.20
2011,02,15,03,46,1.20
2011,02,15,03,47,1.20
2011,02,15,03,48,1.20
2011,02,15,03,49,1.20
2011,02,15,03,50,1.20
2011,02,15,03,51,1.20
2011,02,15,03,52,1.10
2011,02,15,03,53,1.10
2011,02,15,03,54,1.20
2011,02,15,03,55,1.20
2011,02,15,03,56,1.20
2011,02,15,03,57,1.20
2011,02,15,03,58,1.20
2011,02,15,03,59,1.20
2011,02,15,04,00,1.20
2011,02,15,04,01,1.20
2011,02,15,04,02,1.10
2011,02,15,04,03,1.10
2011,02,15,04,04,1.10
2011,02,15,04,05,1.10
2011,02,15,04,06,1.10
2011,02,15,04,07,1.10
2011,02,15,04,08,1.00
2011,02,15,04,09,1.00
2011,02,15,04,10,1.00
2011,02,15,04,11,1.00
2011,02,15,04,12,1.10
2011,02,15,04,13,1.10
2011,02,15,04,14,1.10
2011,02,15,04,15,1.10
2011,02,15,04,16,1.10
2011,02,15,04,17,1.00
2011,02,15,04,18,1.00
2011,02,15,04,19,0.90
2011,02,15,04,20,0.90
2011,02,15,04,21,0.90
2011,02,15,04,22,1.00
2011,02,15,04,23,1.00
2011,02,15,04,24,1.00
2011,02,15,04,25,1.10
2011,02,15,04,26,1.10
2011,02,15,04,27,1.20
2011,02,15,04,28,1.20
2011,02,15,04,29,1.20
2011,02,15,04,30,1.30
2011,02,15,04,31,1.30
2011,02,15,04,32,1.20
2011,02,15,04,33,1.20
2011,02,15,04,34,1.20
2011,02,15,04,35,1.20
2011,02,15,04,36,1.20
2011,02,15,04,37,1.20
2011,02,15,04,38,1.20
2011,02,15,04,39,1.10
2011,02,15,04,40,1.10
2011,02,15,04,41,1.10
2011,02,15,04,42,1.00
2011,02,15,04,43,1.00
2011,02,15,04,44,1.00
2011,02,15,04,45,1.00
2011,02,15,04,46,1.00
2011,02,15,04,47,1.00
2011,02,15,04,48,1.00
2011,02,15,04,49,1.20
2011,02,15,04,50,1.30
2011,02,15,04,51,1.40
2011,02,15,04,52,1.60
2011,02,15,04,53,1.70
2011,02,15,04,54,1.80
2011,02,15,04,55,1.80
2011,02,15,04,56,1.80
2011,02,15,04,57,1.80
2011,02,15,04,58,1.80
2011,02,15,04,59,1.80
2011,02,15,05,00,1.80
2011,02,15,05,01,1.80
2011,02,15,05,02,1.80
2011,02,15,05,03,1.80
2011,02,15,05,04,1.80
2011,02,15,05,05,1.80
2011,02,15,05,06,1.80
2011,02,15,05,07,1.70
2011,02,15,05,08,1.70
2011,02,15,05,09,1.70
2011,02,15,05,10,1.70
2011,02,15,05,11,1.70
2011,02,15,05,12,1.70
2011,02,15,05,13,1.70
2011,02,15,05,14,1.60
2011,02,15,05,15,1.60
2011,02,15,05,16,1.60
2011,02,15,05,17,1.60
2011,02,15,05,18,1.60
2011,02,15,05,19,1.60
2011,02,15,05,20,1.60
2011,02,15,05,21,1.60
2011,02,15,05,22,1.60
2011,02,15,05,23,1.50
2011,02,15,05,24,1.50
2011,02,15,05,25,1.40
2011,02,15,05,26,1.40
2011,02,15,05,27,1.40
2011,02,15,05,28,1.30
2011,02,15,05,29,1.30
2011,02,15,05,30,1.30
2011,02,15,05,31,1.30
2011,02,15,05,32,1.40
2011,02,15,05,33,1.40
2011,02,15,05,34,1.40
2011,02,15,05,35,1.40
2011,02,15,05,36,1.40
2011,02,15,05,37,1.50
2011,02,15,05,38,1.50
2011,02,15,05,39,1.50
2011,02,15,05,40,1.50
2011,02,15,05,41,1.50
2011,02,15,05,42,1.50
2011,02,15,05,43,1.50
2011,02,15,05,44,1.50
2011,02,15,05,45,1.50
2011,02,15,05,46,1.50
2011,02,15,05,47,1.50
2011,02,15,05,48,1.50
2011,02,15,05,49,1.50
2011,02,15,05,50,1.50
2011,02,15,05,51,1.40
2011,02,15,05,52,1.40
2011,02,15,05,53,1.40
2011,02,15,05,54,1.40
2011,02,15,05,55,1.40
2011,02,15,05,56,1.40
2011,02,15,05,57,1.40
2011,02,15,05,58,1.40
2011,02,15,05,59,1.40
2011,02,15,06,00,1.40
2011,02,15,06,01,1.30
2011,02,15,06,02,1.40
2011,02,15,06,03,1.40
2011,02,15,06,04,1.40
2011,02,15,06,05,1.40
2011,02,15,06,06,1.30
2011,02,15,06,07,1.30
2011,02,15,06,08,1.30
2011,02,15,06,09,1.30
2011,02,15,06,10,1.40
2011,02,15,06,11,1.40
2011,02,15,06,12,1.40
2011,02,15,06,13,1.30
2011,02,15,06,14,1.40
2011,02,15,06,15,1.50
2011,02,15,06,16,1.50
2011,02,15,06,17,1.60
2011,02,15,06,18,1.70
2011,02,15,06,19,1.70
2011,02,15,06,20,1.70
2011,02,15,06,21,1.70
2011,02,15,06,22,1.70
2011,02,15,06,23,1.70
2011,02,15,06,24,1.70
2011,02,15,06,25,1.80
2011,02,15,06,26,1.80
2011,02,15,06,27,1.80
2011,02,15,06,28,1.80
2011,02,15,06,29,1.80
2011,02,15,06,30,1.70
2011,02,15,06,31,1.70
2011,02,15,06,32,1.70
2011,02,15,06,33,1.60
2011,02,15,06,34,1.60
2011,02,15,06,35,1.60
2011,02,15,06,36,1.50
2011,02,15,06,37,1.50
2011,02,15,06,38,1.40
2011,02,15,06,39,1.40
2011,02,15,06,40,1.40
2011,02,15,06,41,1.30
2011,02,15,06,42,1.30
2011,02,15,06,43,1.30
2011,02,15,06,44,1.30
2011,02,15,06,45,1.40
2011,02,15,06,46,1.40
2011,02,15,06,47,1.40
2011,02,15,06,48,1.40
2011,02,15,06,49,1.50
2011,02,15,06,50,1.40
2011,02,15,06,51,1.40
2011,02,15,06,52,1.40
2011,02,15,06,53,1.40
2011,02,15,06,54,1.40
2011,02,15,06,55,1.40
2011,02,15,06,56,1.40
2011,02,15,06,57,1.40
2011,02,15,06,58,1.40
2011,02,15,06,59,1.50
2011,02,15,07,00,1.50
2011,02,15,07,01,1.60
2011,02,15,07,02,1.60
2011,02,15,07,03,1.70
2011,02,15,07,04,1.70
2011,02,15,07,05,1.70
2011,02,15,07,06,1.80
2011,02,15,07,07,1.80
2011,02,15,07,08,1.80
2011,02,15,07,09,1.80
2011,02,15,07,10,1.80
2011,02,15,07,11,1.90
2011,02,15,07,12,1.90
2011,02,15,07,13,1.90
2011,02,15,07,14,2.00
2011,02,15,07,15,2.00
2011,02,15,07,16,2.10
2011,02,15,07,17,2.10
2011,02,15,07,18,2.20
2011,02,15,07,19,2.20
2011,02,15,07,20,2.30
2011,02,15,07,21,2.30
2011,02,15,07,22,2.30
2011,02,15,07,23,2.40
2011,02,15,07,24,2.40
2011,02,15,07,25,2.40
2011,02,15,07,26,2.50
2011,02,15,07,27,2.50
2011,02,15,07,28,2.60
2011,02,15,07,29,2.60
2011,02,15,07,30,2.60
2011,02,15,07,31,2.60
2011,02,15,07,32,2.60
2011,02,15,07,33,2.60
2011,02,15,07,34,2.70
2011,02,15,07,35,2.70
2011,02,15,07,36,2.80
2011,02,15,07,37,2.80
2011,02,15,07,38,2.80
2011,02,15,07,39,2.90
2011,02,15,07,40,2.90
2011,02,15,07,41,2.90
2011,02,15,07,42,2.90
2011,02,15,07,43,2.90
2011,02,15,07,44,2.90
2011,02,15,07,45,3.00
2011,02,15,07,46,2.90
2011,02,15,07,47,2.90
2011,02,15,07,48,2.90
2011,02,15,07,49,2.80
2011,02,15,07,50,2.70
2011,02,15,07,51,2.70
2011,02,15,07,52,2.60
2011,02,15,07,53,2.50
2011,02,15,07,54,2.50
2011,02,15,07,55,2.50
2011,02,15,07,56,2.40
2011,02,15,07,57,2.40
2011,02,15,07,58,2.40
2011,02,15,07,59,2.40
2011,02,15,08,00,2.40
2011,02,15,08,01,2.40
2011,02,15,08,02,2.40
2011,02,15,08,03,2.40
2011,02,15,08,04,2.40
2011,02,15,08,05,2.40
2011,02,15,08,06,2.40
2011,02,15,08,07,2.40
2011,02,15,08,08,2.40
2011,02,15,08,09,2.50
2011,02,15,08,10,2.50
2011,02,15,08,11,2.50
2011,02,15,08,12,2.60
2011,02,15,08,13,2.60
2011,02,15,08,14,2.70
2011,02,15,08,15,2.90
2011,02,15,08,16,3.00
2011,02,15,08,17,3.10
2011,02,15,08,18,3.20
2011,02,15,08,19,3.30
2011,02,15,08,20,3.30
2011,02,15,08,21,3.40
2011,02,15,08,22,3.40
2011,02,15,08,23,3.40
2011,02,15,08,24,3.50
2011,02,15,08,25,3.50
2011,02,15,08,26,3.50
2011,02,15,08,27,3.50
2011,02,15,08,28,3.50
2011,02,15,08,29,3.50
2011,02,15,08,30,3.50
2011,02,15,08,31,3.50
2011,02,15,08,32,3.50
2011,02,15,08,33,3.60
2011,02,15,08,34,3.60
2011,02,15,08,35,3.60
2011,02,15,08,36,3.60
2011,02,15,08,37,3.60
2011,02,15,08,38,3.60
2011,02,15,08,39,3.60
2011,02,15,08,40,3.60
2011,02,15,08,41,3.60
2011,02,15,08,42,3.60
2011,02,15,08,43,3.70
2011,02,15,08,44,3.70
2011,02,15,08,45,3.70
2011,02,15,08,46,3.70
2011,02,15,08,47,3.70
2011,02,15,08,48,3.70
2011,02,15,08,49,3.70
2011,02,15,08,50,3.70
2011,02,15,08,51,3.70
2011,02,15,08,52,3.70
2011,02,15,08,53,3.70
2011,02,15,08,54,3.70
2011,02,15,08,55,3.70
2011,02,15,08,56,3.70
2011,02,15,08,57,3.70
2011,02,15,08,58,3.70
2011,02,15,08,59,3.60
2011,02,15,09,00,3.60
2011,02,15,09,01,3.60
2011,02,15,09,02,3.60
2011,02,15,09,03,3.60
2011,02,15,09,04,3.60
2011,02,15,09,05,3.60
2011,02,15,09,06,3.60
2011,02,15,09,07,3.60
2011,02,15,09,08,3.60
2011,02,15,09,09,3.60
2011,02,15,09,10,3.60
2011,02,15,09,11,3.60
2011,02,15,09,12,3.70
2011,02,15,09,13,3.70
2011,02,15,09,14,3.70
2011,02,15,09,15,3.70
2011,02,15,09,16,3.80
2011,02,15,09,17,3.80
2011,02,15,09,18,3.80
2011,02,15,09,19,3.80
2011,02,15,09,20,3.90
2011,02,15,09,21,3.90
2011,02,15,09,22,3.90
2011,02,15,09,23,4.00
2011,02,15,09,24,4.00
2011,02,15,09,25,4.10
2011,02,15,09,26,4.10
2011,02,15,09,27,4.10
2011,02,15,09,28,4.10
2011,02,15,09,29,4.20
2011,02,15,09,30,4.20
2011,02,15,09,31,4.20
2011,02,15,09,32,4.20
2011,02,15,09,33,4.20
2011,02,15,09,34,4.30
2011,02,15,09,35,4.30
2011,02,15,09,36,4.20
2011,02,15,09,37,4.30
2011,02,15,09,38,4.30
2011,02,15,09,39,4.30
2011,02,15,09,40,4.30
2011,02,15,09,41,4.30
2011,02,15,09,42,4.30
2011,02,15,09,43,4.30
2011,02,15,09,44,4.30
2011,02,15,09,45,4.30
2011,02,15,09,46,4.30
2011,02,15,09,47,4.30
2011,02,15,09,48,4.30
2011,02,15,09,49,4.30
2011,02,15,09,50,4.40
2011,02,15,09,51,4.40
2011,02,15,09,52,4.40
2011,02,15,09,53,4.40
2011,02,15,09,54,4.40
2011,02,15,09,55,4.40
2011,02,15,09,56,4.40
2011,02,15,09,57,4.40
2011,02,15,09,58,4.40
2011,02,15,09,59,4.40
2011,02,15,10,00,4.40
2011,02,15,10,01,4.40
2011,02,15,10,02,4.40
2011,02,15,10,03,4.40
2011,02,15,10,04,4.50
2011,02,15,10,05,4.50
2011,02,15,10,06,4.50
2011,02,15,10,07,4.60
2011,02,15,10,08,4.60
2011,02,15,10,09,4.70
2011,02,15,10,10,4.70
2011,02,15,10,11,4.80
2011,02,15,10,12,4.90
2011,02,15,10,13,4.90
2011,02,15,10,14,5.00
2011,02,15,10,15,5.00
2011,02,15,10,16,5.10
2011,02,15,10,17,5.10
2011,02,15,10,18,5.20
2011,02,15,10,19,5.20
2011,02,15,10,20,5.20
2011,02,15,10,21,5.20
2011,02,15,10,22,5.20
2011,02,15,10,23,5.30
2011,02,15,10,24,5.30
2011,02,15,10,25,5.30
2011,02,15,10,26,5.40
2011,02,15,10,27,5.40
2011,02,15,10,28,5.50
2011,02,15,10,29,5.60
2011,02,15,10,30,5.60
2011,02,15,10,31,5.60
2011,02,15,10,32,5.70
2011,02,15,10,33,5.70
2011,02,15,10,34,5.70
2011,02,15,10,35,5.70
2011,02,15,10,36,5.70
2011,02,15,10,37,5.70
2011,02,15,10,38,5.70
2011,02,15,10,39,5.70
2011,02,15,10,40,5.70
2011,02,15,10,41,5.70
2011,02,15,10,42,5.70
2011,02,15,10,43,5.70
2011,02,15,10,44,5.70
2011,02,15,10,45,5.70
2011,02,15,10,46,5.70
2011,02,15,10,47,5.80
2011,02,15,10,48,5.80
2011,02,15,10,49,5.80
2011,02,15,10,50,5.80
2011,02,15,10,51,5.80
2011,02,15,10,52,5.90
2011,02,15,10,53,5.90
2011,02,15,10,54,5.90
2011,02,15,10,55,5.90
2011,02,15,10,56,5.90
2011,02,15,10,57,6.00
2011,02,15,10,58,6.00
2011,02,15,10,59,6.00
2011,02,15,11,00,6.10
2011,02,15,11,01,6.10
2011,02,15,11,02,6.10
2011,02,15,11,03,6.10
2011,02,15,11,04,6.10
2011,02,15,11,05,6.10
2011,02,15,11,06,6.10
2011,02,15,11,07,6.10
2011,02,15,11,08,6.10
2011,02,15,11,09,6.10
2011,02,15,11,10,6.10
2011,02,15,11,11,6.10
2011,02,15,11,12,6.10
2011,02,15,11,13,6.10
2011,02,15,11,14,6.20
2011,02,15,11,15,6.20
2011,02,15,11,16,6.20
2011,02,15,11,17,6.20
2011,02,15,11,18,6.20
2011,02,15,11,19,6.30
2011,02,15,11,20,6.30
2011,02,15,11,21,6.30
2011,02,15,11,22,6.30
2011,02,15,11,23,6.30
2011,02,15,11,24,6.30
2011,02,15,11,25,6.30
2011,02,15,11,26,6.30
2011,02,15,11,27,6.30
2011,02,15,11,28,6.30
2011,02,15,11,29,6.40
2011,02,15,11,30,6.40
2011,02,15,11,31,6.40
2011,02,15,11,32,6.50
2011,02,15,11,33,6.50
2011,02,15,11,34,6.60
2011,02,15,11,35,6.60
2011,02,15,11,36,6.70
2011,02,15,11,37,6.70
2011,02,15,11,38,6.80
2011,02,15,11,39,6.80
2011,02,15,11,40,6.90
2011,02,15,11,41,7.00
2011,02,15,11,42,7.20
2011,02,15,11,43,7.20
2011,02,15,11,44,7.40
2011,02,15,11,45,7.40
2011,02,15,11,46,7.40
2011,02,15,11,47,7.40
2011,02,15,11,48,7.50
2011,02,15,11,49,7.50
2011,02,15,11,50,7.50
2011,02,15,11,51,7.50
2011,02,15,11,52,7.50
2011,02,15,11,53,7.50
2011,02,15,11,54,7.40
2011,02,15,11,55,7.40
2011,02,15,11,56,7.30
2011,02,15,11,57,7.30
2011,02,15,11,58,7.20
2011,02,15,11,59,7.20
2011,02,15,12,00,7.10
2011,02,15,12,01,7.00
2011,02,15,12,02,6.90
2011,02,15,12,03,6.80
2011,02,15,12,04,6.70
2011,02,15,12,05,6.70
2011,02,15,12,06,6.70
2011,02,15,12,07,6.70
2011,02,15,12,08,6.70
2011,02,15,12,09,6.70
2011,02,15,12,10,6.70
2011,02,15,12,11,6.60
2011,02,15,12,12,6.60
2011,02,15,12,13,6.60
2011,02,15,12,14,6.60
2011,02,15,12,15,6.60
2011,02,15,12,16,6.60
2011,02,15,12,17,6.60
2011,02,15,12,18,6.60
2011,02,15,12,19,6.50
2011,02,15,12,20,6.50
2011,02,15,12,21,6.40
2011,02,15,12,22,6.40
2011,02,15,12,23,6.40
2011,02,15,12,24,6.40
2011,02,15,12,25,6.40
2011,02,15,12,26,6.40
2011,02,15,12,27,6.40
2011,02,15,12,28,6.30
2011,02,15,12,29,6.30
2011,02,15,12,30,6.40
2011,02,15,12,31,6.40
2011,02,15,12,32,6.40
2011,02,15,12,33,6.40
2011,02,15,12,34,6.50
2011,02,15,12,35,6.50
2011,02,15,12,36,6.60
2011,02,15,12,37,6.60
2011,02,15,12,38,6.70
2011,02,15,12,39,6.70
2011,02,15,12,40,6.70
2011,02,15,12,41,6.70
2011,02,15,12,42,6.70
2011,02,15,12,43,6.60
2011,02,15,12,44,6.60
2011,02,15,12,45,6.50
2011,02,15,12,46,6.40
2011,02,15,12,47,6.40
2011,02,15,12,48,6.40
2011,02,15,12,49,6.40
2011,02,15,12,50,6.40
2011,02,15,12,51,6.40
2011,02,15,12,52,6.40
2011,02,15,12,53,6.40
2011,02,15,12,54,6.40
2011,02,15,12,55,6.30
2011,02,15,12,56,6.30
2011,02,15,12,57,6.40
2011,02,15,12,58,6.40
2011,02,15,12,59,6.40
2011,02,15,13,00,6.40
2011,02,15,13,01,6.40
2011,02,15,13,02,6.40
2011,02,15,13,03,6.30
2011,02,15,13,04,6.30
2011,02,15,13,05,6.30
2011,02,15,13,06,6.30
2011,02,15,13,07,6.30
2011,02,15,13,08,6.20
2011,02,15,13,09,6.20
2011,02,15,13,10,6.20
2011,02,15,13,11,6.10
2011,02,15,13,12,6.10
2011,02,15,13,13,6.10
2011,02,15,13,14,6.10
2011,02,15,13,15,6.10
2011,02,15,13,16,6.10
2011,02,15,13,17,6.10
2011,02,15,13,18,6.10
2011,02,15,13,19,6.10
2011,02,15,13,20,6.10
2011,02,15,13,21,6.10
2011,02,15,13,22,6.10
2011,02,15,13,23,6.20
2011,02,15,13,24,6.20
2011,02,15,13,25,6.20
2011,02,15,13,26,6.20
2011,02,15,13,27,6.20
2011,02,15,13,28,6.20
2011,02,15,13,29,6.30
2011,02,15,13,30,6.30
2011,02,15,13,31,6.20
2011,02,15,13,32,6.20
2011,02,15,13,33,6.20
2011,02,15,13,34,6.10
2011,02,15,13,35,6.10
2011,02,15,13,36,6.10
2011,02,15,13,37,6.00
2011,02,15,13,38,6.00
2011,02,15,13,39,6.00
2011,02,15,13,40,6.00
2011,02,15,13,41,6.00
2011,02,15,13,42,6.00
2011,02,15,13,43,6.00
2011,02,15,13,44,6.00
2011,02,15,13,45,6.10
2011,02,15,13,46,6.10
2011,02,15,13,47,6.10
2011,02,15,13,48,6.10
2011,02,15,13,49,6.10
2011,02,15,13,50,6.10
2011,02,15,13,51,6.10
2011,02,15,13,52,6.10
2011,02,15,13,53,6.00
2011,02,15,13,54,6.10
2011,02,15,13,55,6.10
2011,02,15,13,56,6.10
2011,02,15,13,57,6.10
2011,02,15,13,58,6.10
2011,02,15,13,59,6.20
2011,02,15,14,00,6.20
2011,02,15,14,01,6.20
2011,02,15,14,02,6.30
2011,02,15,14,03,6.30
2011,02,15,14,04,6.30
2011,02,15,14,05,6.30
2011,02,15,14,06,6.30
2011,02,15,14,07,6.40
2011,02,15,14,08,6.40
2011,02,15,14,09,6.40
2011,02,15,14,10,6.40
2011,02,15,14,11,6.40
2011,02,15,14,12,6.30
2011,02,15,14,13,6.30
2011,02,15,14,14,6.40
2011,02,15,14,15,6.40
2011,02,15,14,16,6.40
2011,02,15,14,17,6.40
2011,02,15,14,18,6.40
2011,02,15,14,19,6.40
2011,02,15,14,20,6.40
2011,02,15,14,21,6.40
2011,02,15,14,22,6.40
2011,02,15,14,23,6.30
2011,02,15,14,24,6.30
2011,02,15,14,25,6.40
2011,02,15,14,26,6.40
2011,02,15,14,27,6.40
2011,02,15,14,28,6.40
2011,02,15,14,29,6.40
2011,02,15,14,30,6.40
2011,02,15,14,31,6.40
2011,02,15,14,32,6.40
2011,02,15,14,33,6.40
2011,02,15,14,34,6.40
2011,02,15,14,35,6.40
2011,02,15,14,36,6.40
2011,02,15,14,37,6.40
2011,02,15,14,38,6.40
2011,02,15,14,39,6.30
2011,02,15,14,40,6.30
2011,02,15,14,41,6.30
2011,02,15,14,42,6.40
2011,02,15,14,43,6.40
2011,02,15,14,44,6.40
2011,02,15,14,45,6.40
2011,02,15,14,46,6.40
2011,02,15,14,47,6.40
2011,02,15,14,48,6.40
2011,02,15,14,49,6.40
2011,02,15,14,50,6.40
2011,02,15,14,51,6.50
2011,02,15,14,52,6.50
2011,02,15,14,53,6.50
2011,02,15,14,54,6.60
2011,02,15,14,55,6.60
2011,02,15,14,56,6.70
2011,02,15,14,57,6.70
2011,02,15,14,58,6.80
2011,02,15,14,59,6.90
2011,02,15,15,00,6.90
2011,02,15,15,01,7.00
2011,02,15,15,02,7.00
2011,02,15,15,03,7.00
2011,02,15,15,04,7.00
2011,02,15,15,05,7.00
2011,02,15,15,06,7.10
2011,02,15,15,07,7.00
2011,02,15,15,08,7.00
2011,02,15,15,09,7.00
2011,02,15,15,10,7.00
2011,02,15,15,11,7.00
2011,02,15,15,12,7.00
2011,02,15,15,13,7.00
2011,02,15,15,14,7.00
2011,02,15,15,15,7.00
2011,02,15,15,16,7.00
2011,02,15,15,17,7.00
2011,02,15,15,18,7.00
2011,02,15,15,19,7.00
2011,02,15,15,20,7.00
2011,02,15,15,21,7.00
2011,02,15,15,22,7.00
2011,02,15,15,23,7.00
2011,02,15,15,24,6.90
2011,02,15,15,25,6.90
2011,02,15,15,26,6.90
2011,02,15,15,27,6.90
2011,02,15,15,28,6.90
2011,02,15,15,29,7.00
2011,02,15,15,30,7.00
2011,02,15,15,31,7.00
2011,02,15,15,32,7.00
2011,02,15,15,33,6.90
2011,02,15,15,34,6.90
2011,02,15,15,35,6.90
2011,02,15,15,36,6.90
2011,02,15,15,37,6.90
2011,02,15,15,38,6.90
2011,02,15,15,39,6.90
2011,02,15,15,40,6.90
2011,02,15,15,41,6.90
2011,02,15,15,42,7.00
2011,02,15,15,43,7.00
2011,02,15,15,44,7.00
2011,02,15,15,45,7.00
2011,02,15,15,46,7.00
2011,02,15,15,47,7.00
2011,02,15,15,48,7.00
2011,02,15,15,49,7.00
2011,02,15,15,50,7.00
2011,02,15,15,51,7.00
2011,02,15,15,52,7.00
2011,02,15,15,53,7.00
2011,02,15,15,54,7.10
2011,02,15,15,55,7.10
2011,02,15,15,56,7.10
2011,02,15,15,57,7.10
2011,02,15,15,58,7.10
2011,02,15,15,59,7.10
2011,02,15,16,00,7.10
2011,02,15,16,01,7.10
2011,02,15,16,02,7.10
2011,02,15,16,03,7.10
2011,02,15,16,04,7.10
2011,02,15,16,05,7.10
2011,02,15,16,06,7.00
2011,02,15,16,07,7.00
2011,02,15,16,08,7.00
2011,02,15,16,09,6.90
2011,02,15,16,10,6.90
2011,02,15,16,11,6.90
2011,02,15,16,12,6.80
2011,02,15,16,13,6.80
2011,02,15,16,14,6.80
2011,02,15,16,15,6.70
2011,02,15,16,16,6.70
2011,02,15,16,17,6.70
2011,02,15,16,18,6.60
2011,02,15,16,19,6.60
2011,02,15,16,20,6.60
2011,02,15,16,21,6.50
2011,02,15,16,22,6.50
2011,02,15,16,23,6.40
2011,02,15,16,24,6.40
2011,02,15,16,25,6.40
2011,02,15,16,26,6.40
2011,02,15,16,27,6.30
2011,02,15,16,28,6.30
2011,02,15,16,29,6.30
2011,02,15,16,30,6.30
2011,02,15,16,31,6.30
2011,02,15,16,32,6.30
2011,02,15,16,33,6.30
2011,02,15,16,34,6.30
2011,02,15,16,35,6.30
2011,02,15,16,36,6.30
2011,02,15,16,37,6.30
2011,02,15,16,38,6.30
2011,02,15,16,39,6.30
2011,02,15,16,40,6.30
2011,02,15,16,41,6.30
2011,02,15,16,42,6.30
2011,02,15,16,43,6.30
2011,02,15,16,44,6.30
2011,02,15,16,45,6.30
2011,02,15,16,46,6.30
2011,02,15,16,47,6.20
2011,02,15,16,48,6.20
2011,02,15,16,49,6.20
2011,02,15,16,50,6.20
2011,02,15,16,51,6.20
2011,02,15,16,52,6.20
2011,02,15,16,53,6.20
2011,02,15,16,54,6.10
2011,02,15,16,55,6.10
2011,02,15,16,56,6.10
2011,02,15,16,57,6.00
2011,02,15,16,58,6.00
2011,02,15,16,59,5.90
2011,02,15,17,00,5.90
2011,02,15,17,01,5.90
2011,02,15,17,02,5.90
2011,02,15,17,03,5.80
2011,02,15,17,04,5.80
2011,02,15,17,05,5.80
2011,02,15,17,06,5.80
2011,02,15,17,07,5.70
2011,02,15,17,08,5.70
2011,02,15,17,09,5.70
2011,02,15,17,10,5.60
2011,02,15,17,11,5.60
2011,02,15,17,12,5.60
2011,02,15,17,13,5.50
2011,02,15,17,14,5.50
2011,02,15,17,15,5.40
2011,02,15,17,16,5.40
2011,02,15,17,17,5.40
2011,02,15,17,18,5.40
2011,02,15,17,19,5.30
2011,02,15,17,20,5.30
2011,02,15,17,21,5.30
2011,02,15,17,22,5.30
2011,02,15,17,23,5.20
2011,02,15,17,24,5.20
2011,02,15,17,25,5.20
2011,02,15,17,26,5.20
2011,02,15,17,27,5.10
2011,02,15,17,28,5.10
2011,02,15,17,29,5.10
2011,02,15,17,30,5.10
2011,02,15,17,31,5.10
2011,02,15,17,32,5.10
2011,02,15,17,33,5.10
2011,02,15,17,34,5.00
2011,02,15,17,35,5.00
2011,02,15,17,36,5.00
2011,02,15,17,37,5.00
2011,02,15,17,38,5.00
2011,02,15,17,39,4.90
2011,02,15,17,40,4.90
2011,02,15,17,41,4.90
2011,02,15,17,42,4.90
2011,02,15,17,43,4.90
2011,02,15,17,44,4.90
2011,02,15,17,45,4.90
2011,02,15,17,46,4.90
2011,02,15,17,47,4.90
2011,02,15,17,48,4.80
2011,02,15,17,49,4.80
2011,02,15,17,50,4.80
2011,02,15,17,51,4.80
2011,02,15,17,52,4.80
2011,02,15,17,53,4.80
2011,02,15,17,54,4.80
2011,02,15,17,55,4.80
2011,02,15,17,56,4.80
2011,02,15,17,57,4.80
2011,02,15,17,58,4.80
2011,02,15,17,59,4.70
2011,02,15,18,00,4.70
2011,02,15,18,01,4.70
2011,02,15,18,02,4.70
2011,02,15,18,03,4.70
2011,02,15,18,04,4.70
2011,02,15,18,05,4.70
2011,02,15,18,06,4.70
2011,02,15,18,07,4.60
2011,02,15,18,08,4.60
2011,02,15,18,09,4.60
2011,02,15,18,10,4.60
2011,02,15,18,11,4.60
2011,02,15,18,12,4.60
2011,02,15,18,13,4.60
2011,02,15,18,14,4.60
2011,02,15,18,15,4.60
2011,02,15,18,16,4.60
2011,02,15,18,17,4.60
2011,02,15,18,18,4.50
2011,02,15,18,19,4.50
2011,02,15,18,20,4.50
2011,02,15,18,21,4.50
2011,02,15,18,22,4.50
2011,02,15,18,23,4.50
2011,02,15,18,24,4.50
2011,02,15,18,25,4.50
2011,02,15,18,26,4.40
2011,02,15,18,27,4.40
2011,02,15,18,28,4.40
2011,02,15,18,29,4.40
2011,02,15,18,30,4.40
2011,02,15,18,31,4.40
2011,02,15,18,32,4.40
2011,02,15,18,33,4.40
2011,02,15,18,34,4.30
2011,02,15,18,35,4.30
2011,02,15,18,36,4.30
2011,02,15,18,37,4.30
2011,02,15,18,38,4.20
2011,02,15,18,39,4.20
2011,02,15,18,40,4.20
2011,02,15,18,41,4.20
2011,02,15,18,42,4.10
2011,02,15,18,43,4.10
2011,02,15,18,44,4.10
2011,02,15,18,45,4.00
2011,02,15,18,46,4.00
2011,02,15,18,47,4.00
2011,02,15,18,48,3.90
2011,02,15,18,49,3.90
2011,02,15,18,50,3.90
2011,02,15,18,51,3.80
2011,02,15,18,52,3.80
2011,02,15,18,53,3.80
2011,02,15,18,54,3.80
2011,02,15,18,55,3.80
2011,02,15,18,56,3.80
2011,02,15,18,57,3.80
2011,02,15,18,58,3.70
2011,02,15,18,59,3.70
2011,02,15,19,00,3.70
2011,02,15,19,01,3.70
2011,02,15,19,02,3.60
2011,02,15,19,03,3.60
2011,02,15,19,04,3.60
2011,02,15,19,05,3.60
2011,02,15,19,06,3.60
2011,02,15,19,07,3.60
2011,02,15,19,08,3.60
2011,02,15,19,09,3.60
2011,02,15,19,10,3.60
2011,02,15,19,11,3.60
2011,02,15,19,12,3.60
2011,02,15,19,13,3.60
2011,02,15,19,14,3.60
2011,02,15,19,15,3.60
2011,02,15,19,16,3.60
2011,02,15,19,17,3.60
2011,02,15,19,18,3.50
2011,02,15,19,19,3.50
2011,02,15,19,20,3.40
2011,02,15,19,21,3.40
2011,02,15,19,22,3.40
2011,02,15,19,23,3.30
2011,02,15,19,24,3.30
2011,02,15,19,25,3.30
2011,02,15,19,26,3.20
2011,02,15,19,27,3.20
2011,02,15,19,28,3.20
2011,02,15,19,29,3.20
2011,02,15,19,30,3.20
2011,02,15,19,31,3.20
2011,02,15,19,32,3.20
2011,02,15,19,33,3.20
2011,02,15,19,34,3.20
2011,02,15,19,35,3.20
2011,02,15,19,36,3.20
2011,02,15,19,37,3.20
2011,02,15,19,38,3.20
2011,02,15,19,39,3.20
2011,02,15,19,40,3.20
2011,02,15,19,41,3.20
2011,02,15,19,42,3.20
2011,02,15,19,43,3.20
2011,02,15,19,44,3.20
2011,02,15,19,45,3.20
2011,02,15,19,46,3.30
2011,02,15,19,47,3.30
2011,02,15,19,48,3.30
2011,02,15,19,49,3.30
2011,02,15,19,50,3.30
2011,02,15,19,51,3.40
2011,02,15,19,52,3.40
2011,02,15,19,53,3.40
2011,02,15,19,54,3.40
2011,02,15,19,55,3.40
2011,02,15,19,56,3.40
2011,02,15,19,57,3.40
2011,02,15,19,58,3.40
2011,02,15,19,59,3.40
2011,02,15,20,00,3.40
2011,02,15,20,01,3.40
2011,02,15,20,02,3.40
2011,02,15,20,03,3.50
2011,02,15,20,04,3.40
2011,02,15,20,05,3.40
2011,02,15,20,06,3.40
2011,02,15,20,07,3.40
2011,02,15,20,08,3.40
2011,02,15,20,09,3.40
2011,02,15,20,10,3.40
2011,02,15,20,11,3.40
2011,02,15,20,12,3.40
2011,02,15,20,13,3.40
2011,02,15,20,14,3.40
2011,02,15,20,15,3.40
2011,02,15,20,16,3.40
2011,02,15,20,17,3.40
2011,02,15,20,18,3.40
2011,02,15,20,19,3.40
2011,02,15,20,20,3.40
2011,02,15,20,21,3.30
2011,02,15,20,22,3.30
2011,02,15,20,23,3.30
2011,02,15,20,24,3.30
2011,02,15,20,25,3.30
2011,02,15,20,26,3.30
2011,02,15,20,27,3.20
2011,02,15,20,28,3.20
2011,02,15,20,29,3.10
2011,02,15,20,30,3.10
2011,02,15,20,31,3.10
2011,02,15,20,32,3.00
2011,02,15,20,33,3.00
2011,02,15,20,34,2.90
2011,02,15,20,35,2.90
2011,02,15,20,36,2.90
2011,02,15,20,37,2.90
2011,02,15,20,38,2.80
2011,02,15,20,39,2.80
2011,02,15,20,40,2.80
2011,02,15,20,41,2.80
2011,02,15,20,42,2.80
2011,02,15,20,43,2.80
2011,02,15,20,44,2.80
2011,02,15,20,45,2.80
2011,02,15,20,46,2.80
2011,02,15,20,47,2.70
2011,02,15,20,48,2.70
2011,02,15,20,49,2.70
2011,02,15,20,50,2.70
2011,02,15,20,51,2.70
2011,02,15,20,52,2.70
2011,02,15,20,53,2.70
2011,02,15,20,54,2.70
2011,02,15,20,55,2.70
2011,02,15,20,56,2.60
2011,02,15,20,57,2.60
2011,02,15,20,58,2.50
2011,02,15,20,59,2.50
2011,02,15,21,00,2.50
2011,02,15,21,01,2.40
2011,02,15,21,02,2.40
2011,02,15,21,03,2.30
2011,02,15,21,04,2.30
2011,02,15,21,05,2.30
2011,02,15,21,06,2.30
2011,02,15,21,07,2.30
2011,02,15,21,08,2.30
2011,02,15,21,09,2.30
2011,02,15,21,10,2.30
2011,02,15,21,11,2.30
2011,02,15,21,12,2.30